Location: Conjunto Santa Maria
(19.9513°S, 43.9599°W)
Time: 13:47:16
(UTC+00:00)

Lacrosse 5 rocket - Pass Details

Date: 21 January 2021
Orbit: 465 x 630 km, 57.0° (Epoch: 03 March)

Event Time Altitude Azimuth Distance (km) Brightness Sun altitude
Rises 21:58:10 0° 200° (SSW) 2,862 5.7 -4.6°
Reaches altitude 10° 22:00:37 10° 191° (S) 1,975 4.7 -5.1°
Maximum altitude 22:04:43 33° 126° (SE) 1,050 2.5 -6.0°
Drops below altitude 10° 22:08:52 10° 61° (ENE) 2,002 3.5 -6.9°
Enters shadow 22:09:16 - 59° (ENE) 2,146 3.6 -7.0°
